Regional Weather Roundup
Issued by NWS

Home | Current Version | Previous Version | Text Only | Print | Product List | Glossary Off
Versions: 1 2 3 4 5 6 7 8 9 10 11 12 13 14 15 16 17 18 19 20 21 22 23 24 25 26 27 28 29 30 31 32 33 34 35 36 37 38 39 40 41 42 43 44 45 46 47 48 49 50

000
ASUS45 KBOU 020207
RWRCO

WEATHER ROUNDUP FOR COLORADO
NATIONAL WEATHER SERVICE DENVER/BOULDER CO
800 PM MDT TUE SEP 01 2015

NOTE: "FAIR" INDICATES FEW OR NO CLOUDS BELOW 12000 FEET WITH NO
SIGNIFICANT WEATHER AND/OR OBSTRUCTIONS TO VISIBILITY.

COZ001>005-013-030-031-020300-
...NORTHWEST COLORADO...

CITY           SKY/WX    TMP DP  RH WIND       PRES   REMARKS
CRAIG          MOCLDY    66  42  41 CALM      30.18R
HAYDEN         NOT AVBL
MEEKER         LGT RAIN  59  51  75 SW9       30.27R
MOUNT WERNER   NOT AVBL
STEAMBOAT SPGS MOCLDY    64  45  50 CALM      30.23S
WALDEN         MOCLDY    59  37  44 NW6       30.32R
$$

COZ006>008-011-020300-
...WEST CENTRAL VALLEYS...

CITY           SKY/WX    TMP DP  RH WIND       PRES   REMARKS
GRAND JUNCTION LGT RAIN  70  51  51 W17G28    30.11R
MONTROSE       MOCLDY    75  49  39 W3        30.13R
EAGLE          PTCLDY    72  41  33 CALM      30.20R
RIFLE          LGT RAIN  71  45  39 NW30G39   30.16R
DELTA          MOCLDY    83  41  22 NW14G21   30.07R
NUCLA          MOCLDY    77  37  24 W14       30.18R
$$

COZ017>023-064>068-020300-
...SOUTHWEST COLORADO...

CITY           SKY/WX    TMP DP  RH WIND       PRES   REMARKS
DURANGO        MOCLDY    74  42  31 SW8       30.20R
CORTEZ         CLEAR     73  47  39 SW6       30.14R
PAGOSA SPRINGS MOCLDY    73  36  26 SW3       30.28R
TELLURIDE      TSTM      55  51  86 CALM      30.41R
WOLF CREEK PAS MOCLDY    50  37  62 SW13      30.62R THUNDER
$$

COZ009-010-012-014-032>034-037-058>063-020300-
...CENTRAL COLORADO...

CITY           SKY/WX    TMP DP  RH WIND       PRES   REMARKS
ASPEN          PTCLDY    62  48  60 SW6       30.26R
BUENA VISTA    CLOUDY    66  40  38 NW15      30.31R
COPPER MTN     MOCLDY    54  34  47 W6        30.59S
BERTHOUD PASS  FAIR      45  32  61 W8        30.64S
COTTONWOOD PAS NOT AVBL
GUNNISON       MOCLDY    70  39  32 N7        30.29R
KREMMLING      PTCLDY    55  43  62 CALM      30.27S
LEADVILLE      LGT RAIN  49  44  83 SE10G23   30.47R
SALIDA         MOCLDY    71  38  29 S9G18     30.32S
SUNLIGHT       CLOUDY    55  43  62 CALM      30.53R
WILKERSON PASS CLOUDY    52  36  54 SE5       30.56R
$$

COZ069>075-020300-
...SAN LUIS VALLEY/SANGRE DE CRISTO MOUNTAINS...

CITY           SKY/WX    TMP DP  RH WIND       PRES   REMARKS
ALAMOSA        CLOUDY    63  46  54 N16       30.26S
LA VETA PASS   PTCLDY    57  37  47 MISG      30.46R
SAGUACHE       CLOUDY    59  50  72 NW12      30.32R
$$

COZ035-036-038>040-020300-
...NORTHERN COLORADO FRONT RANGE...

CITY           SKY/WX    TMP DP  RH WIND       PRES   REMARKS
DENVER INTL AP MOCLDY    71  49  45 SE10      30.07S
DMNS CITY PARK   N/A     76  43  30 E14       30.07R
AURORA         MOCLDY    73  43  34 S12       30.11R
FRONT RANGE AP NOT AVBL
ERIE MUNI ARPT MOCLDY    74  43  32 S6        30.05S
BOULDER MUN AP MOCLDY    75  43  31 S5        30.06S
CENTENNIAL     MOCLDY    73  44  35 S10       30.12R
BROOMFIELD     MOCLDY    75  46  35 W3        30.10R
FORT COLLINS   PTCLDY    75  45  33 SW5       30.04R
LONGMONT       PTCLDY    73  49  43 W3        30.06S
$$

COZ041-046-047-076>085-087-088-020300-
...PIKES PEAK/PALMER DIVIDE AND SOUTHERN FOOTHILLS...

CITY           SKY/WX    TMP DP  RH WIND       PRES   REMARKS
COLO. SPRINGS  MOCLDY    68  49  50 W9        30.18R
A. F. ACADEMY  MOCLDY    64  51  64 SW6       30.19S
ELLICOTT       MOCLDY   N/A N/A N/A NE17G26   30.13S
FALCON         MOCLDY    63  47  56 MISG      30.22F
FORT CARSON    DRIZZLE   71  47  43 VRB6      30.15R
LIMON          MOCLDY    68  56  65 NW7       30.09R
MONUMENT HILL  MOCLDY    61  45  55 S13       30.22S
TRINIDAD       CLEAR     75  46  35 SE7       30.09R
$$

COZ042>045-048>051-090-091-020300-
...NORTHEAST COLORADO...

CITY           SKY/WX    TMP DP  RH WIND       PRES   REMARKS
GREELEY ARPT   PTCLDY    77  43  29 SW8       30.03R
AKRON          CLEAR     78  39  24 S7        30.01S
BURLINGTON     PTCLDY    74  57  55 SE15      30.02R
WRAY           CLOUDY    80  48  33 SE8       29.95R
STERLING       NOT AVBL
HOLYOKE        CLEAR     73  59  60 S9        29.95R
FORT MORGAN    CLEAR     76  42  30 CALM      30.00R
$$

COZ086-089-092>099-020300-
...SOUTHEAST COLORADO...

CITY           SKY/WX    TMP DP  RH WIND       PRES   REMARKS
PUEBLO         MOCLDY    79  48  33 N15       30.06R
LA JUNTA       PTCLDY    80  51  36 SE5       29.97S
LAMAR          PTCLDY    75  62  64 SE7       29.94S
SPRINGFIELD      N/A     74  54  49 S16       30.04R
$$




USA.gov is the U.S. government's official web portal to all federal, state and local government web resources and services.